Regional Weather Roundup
Issued by NWS Little Rock, AR

Home | Current Version | Previous Version | Graphics & Text | Print | Product List | Glossary On
Versions: 1 2 3 4 5 6 7 8 9 10 11 12 13 14 15 16 17 18 19 20 21 22 23 24 25 26 27 28 29 30 31 32
000
ASUS44 KLZK 210705
RWRLZK

WEATHER ROUNDUP FOR ARKANSAS
NATIONAL WEATHER SERVICE LITTLE ROCK AR
200 AM CDT SAT APR 21 2018

NOTE: "FAIR" INDICATES FEW OR NO CLOUDS BELOW 12,000 FEET WITH NO
SIGNIFICANT WEATHER AND/OR OBSTRUCTIONS TO VISIBILITY.

ARZ001-003-010-029-210800-
NORTHWEST ARKANSAS

CITY           SKY/WX    TMP DP  RH WIND       PRES   REMARKS
FAYETTEVILLE   CLOUDY    52  30  43 NE3       30.20S
FORT SMITH     CLOUDY    50  37  61 E7        30.18F
HARRISON       PTCLDY    47  25  42 CALM      30.24R
BENTONVILLE    CLOUDY    54  25  32 E5        30.22F
ROGERS         MOCLDY    54  24  31 E5        30.22S
SILOAM SPGS    CLOUDY    52  30  43 E3        30.20S
HIGHFILL       CLOUDY    53  26  35 E6        30.20F
$$

ARZ004-005-016-210800-
NORTH CENTRAL ARKANSAS

CITY           SKY/WX    TMP DP  RH WIND       PRES   REMARKS
BATESVILLE     CLEAR     51  32  48 E6        30.24F
FLIPPIN        PTCLDY    44  30  57 W3        30.25S
MTN HOME       CLOUDY    49  28  44 E7        30.23S
$$

ARZ040-041-210800-
WEST CENTRAL ARKANSAS

CITY           SKY/WX    TMP DP  RH WIND       PRES   REMARKS
MENA           CLEAR     45  41  87 CALM      30.17F
MOUNT IDA      CLEAR     44  41  89 CALM      30.15F
$$

ARZ009-017-025-026-028-210800-
NORTHEAST ARKANSAS

CITY           SKY/WX    TMP DP  RH WIND       PRES   REMARKS
CORNING        FAIR      52  34  50 E13       30.26F
JONESBORO      FAIR      50  37  61 NE8       30.24F
NEWPORT        FAIR      50  37  61 E10       30.23
WALNUT RIDGE   FAIR      47  35  63 NE10      30.25F
BLYTHEVILLE    FAIR      51  34  52 E12       30.25F
$$

ARZ022-023-033-042-044-210800-
CENTRAL ARKANSAS

CITY           SKY/WX    TMP DP  RH WIND       PRES   REMARKS
LITTLE ROCK    FAIR      51  39  63 CALM      30.20S
N LITTLE ROCK    N/A     49  38  65 E6        30.18S
JACKSONVILLE   CLEAR     47  38  73 E5        30.20S
CONWAY         PTSUNNY   52  36  54 E6        30.20F
SEARCY         FAIR      51  36  56 NE7       30.22S
HOT SPRINGS    PTCLDY    52  38  58 E6        30.17F
RUSSELLVILLE   CLOUDY    50  31  48 CALM      30.19F
CLINTON        FAIR      39  36  87 CALM      30.23S
$$

ARZ036-210800-
EAST ARKANSAS

CITY           SKY/WX    TMP DP  RH WIND       PRES   REMARKS
WEST MEMPHIS   FAIR      54  36  50 E7        30.21F
$$

ARZ050-053-066-070-073-210800-
SOUTHWEST ARKANSAS

CITY           SKY/WX    TMP DP  RH WIND       PRES   REMARKS
ARKADELPHIA    FAIR      46  45  96 CALM      30.18F
CAMDEN         FAIR      45  39  81 CALM      30.17F
TEXARKANA      CLEAR     45  42  89 CALM      30.16R
EL DORADO      FAIR      45  43  93 NE5       30.15F
DE QUEEN       CLEAR     46  41  82 CALM      30.15F
$$

ARZ056-057-069-210800-
SOUTHEAST ARKANSAS

CITY           SKY/WX    TMP DP  RH WIND       PRES   REMARKS
PINE BLUFF     FAIR      49  42  77 CALM      30.19S
STUTTGART      FAIR      52  41  66 E7        30.20F
MONTICELLO     FAIR      47  42  83 CALM      30.18F

$$






USA.gov is the U.S. government's official web portal to all federal, state and local government web resources and services.